,,Stat6,,Stat2,,Stat8,,Stat9,,Stat10,,Wind1,,Wind1,
time,status,PA1M_AVG,status,PR1M_SUM,status,RH1M_AVG,status,SR1M_AVG,status,TA1M_AVG,status,W1dAve1m,status,W1sAve1m,
2006-05-01, 00:00:00,VALID,918.853,VALID,0,VALID,95.0028,VALID,-0.20377,VALID,20.6154,VALID,103,VALID,0.0661337,
2006-05-01, 00:01:00,VALID,918.848,VALID,0,VALID,95.0969,VALID,-0.20377,VALID,20.9966,VALID,103,VALID,0.0189453,
2006-05-01, 00:02:00,VALID,918.818,VALID,0,VALID,95.4021,VALID,-0.20377,VALID,21.6823,VALID,103,VALID,0.0964674,
2006-05-01, 00:03:00,VALID,918.807,VALID,0,VALID,95.4123,VALID,-0.186789,VALID,20.6464,VALID,103,VALID,0.12314,
2006-05-01, 00:04:00,VALID,918.779,VALID,0,VALID,95.4797,VALID,-0.20377,VALID,20.7136,VALID,103,VALID,0,
2006-05-01, 00:05:00,VALID,918.766,VALID,0,VALID,95.7111,VALID,-0.20377,VALID,20.7588,VALID,103,VALID,0,
2006-05-01, 00:06:00,VALID,918.768,VALID,0,VALID,95.8243,VALID,-0.220751,VALID,21.0868,VALID,103,VALID,0.061756,
2006-05-01, 00:07:00,VALID,918.784,VALID,0,VALID,95.8904,VALID,-0.186789,VALID,21.6666,VALID,103,VALID,0.179129,
2006-05-01, 00:08:00,VALID,918.822,VALID,0,VALID,96.2783,VALID,-0.220751,VALID,21.0984,VALID,103,VALID,0.23492,
2006-05-01, 00:09:00,VALID,918.871,VALID,0,VALID,96.4614,VALID,-0.20377,VALID,21.0935,VALID,103,VALID,0.0753997,
2006-05-01, 00:10:00,VALID,918.912,VALID,0,VALID,96.5847,VALID,-0.254712,VALID,20.3165,VALID,103,VALID,0.459077,
2006-05-01, 00:11:00,VALID,918.964,VALID,0,VALID,96.53,VALID,-0.220751,VALID,21.2705,VALID,103,VALID,0.0386619,
2006-05-01, 00:12:00,VALID,918.99,VALID,0,VALID,95.9909,VALID,-0.220751,VALID,21.4052,VALID,103,VALID,0,
2006-05-01, 00:13:00,VALID,919.026,VALID,0,VALID,95.9693,VALID,-0.254712,VALID,21.1652,VALID,103,VALID,0.0569957,
2006-05-01, 00:14:00,VALID,919.048,VALID,0,VALID,96.6292,VALID,-0.237732,VALID,19.8469,VALID,103,VALID,0.205469,
2006-05-01, 00:15:00,VALID,919.062,VALID,0,VALID,96.7704,VALID,-0.220751,VALID,21.3782,VALID,103,VALID,0.081032,
2006-05-01, 00:16:00,VALID,919.074,VALID,0,VALID,96.834,VALID,-0.305655,VALID,20.8667,VALID,103,VALID,0.012633,
2006-05-01, 00:17:00,VALID,919.079,VALID,0,VALID,97.1315,VALID,-0.220751,VALID,20.521,VALID,103,VALID,0,
2006-05-01, 00:18:00,VALID,919.082,VALID,0,VALID,97.3922,VALID,-0.169808,VALID,20.8078,VALID,103,VALID,0.00114329,
2006-05-01, 00:19:00,VALID,919.089,VALID,0,VALID,97.3324,VALID,-0.152827,VALID,20.9347,VALID,87,VALID,0.316406,
2006-05-01, 00:20:00,VALID,919.088,VALID,0,VALID,96.5237,VALID,-0.220751,VALID,20.6468,VALID,46,VALID,0.37827,
2006-05-01, 00:21:00,VALID,919.1,VALID,0,VALID,96.5351,VALID,-0.254712,VALID,21.5747,VALID,46,VALID,0.168945,
2006-05-01, 00:22:00,VALID,919.109,VALID,0,VALID,96.7488,VALID,-0.254712,VALID,20.3365,VALID,46,VALID,0.189215,
2006-05-01, 00:23:00,VALID,919.109,VALID,0,VALID,96.9548,VALID,-0.237732,VALID,21.3713,VALID,46,VALID,0.426258,
2006-05-01, 00:24:00,VALID,919.108,VALID,0,VALID,97.2498,VALID,-0.220751,VALID,20.8626,VALID,46,VALID,0.454985,
2006-05-01, 00:25:00,VALID,919.09,VALID,0,VALID,97.0044,VALID,-0.186789,VALID,20.7458,VALID,46,VALID,0.169618,
2006-05-01, 00:26:00,VALID,919.084,VALID,0,VALID,97.1519,VALID,-0.220751,VALID,21.0131,VALID,46,VALID,0.0154433,
2006-05-01, 00:27:00,VALID,919.063,VALID,0,VALID,97.2485,VALID,-0.20377,VALID,20.5121,VALID,46,VALID,0,
2006-05-01, 00:28:00,VALID,919.041,VALID,0,VALID,97.6122,VALID,-0.305655,VALID,21.1626,VALID,46,VALID,0.157203,
2006-05-01, 00:29:00,VALID,919.019,VALID,0,VALID,98.2035,VALID,-0.220751,VALID,20.6719,VALID,47,VALID,0.375186,
2006-05-01, 00:30:00,VALID,919.016,VALID,0,VALID,98.2391,VALID,-0.288674,VALID,21.1555,VALID,47,VALID,0.146875,
2006-05-01, 00:31:00,VALID,919.029,VALID,0,VALID,97.9123,VALID,-0.220751,VALID,21.5691,VALID,47,VALID,0.00745739,
2006-05-01, 00:32:00,VALID,919.022,VALID,0,VALID,97.8309,VALID,-0.305655,VALID,20.5453,VALID,47,VALID,0.148996,
2006-05-01, 00:33:00,VALID,919.031,VALID,0,VALID,98.0547,VALID,-0.254712,VALID,20.614,VALID,47,VALID,0.299237,
2006-05-01, 00:34:00,VALID,919.048,VALID,0,VALID,97.8182,VALID,-0.237732,VALID,21.5302,VALID,35,VALID,0.541606,
2006-05-01, 00:35:00,VALID,919.068,VALID,0,VALID,97.2867,VALID,-0.186789,VALID,20.8353,VALID,4,VALID,0.329268,
2006-05-01, 00:36:00,VALID,919.075,VALID,0,VALID,97.2015,VALID,-0.288674,VALID,20.7137,VALID,5,VALID,0.138808,
2006-05-01, 00:37:00,VALID,919.084,VALID,0,VALID,97.705,VALID,-0.254712,VALID,21.1603,VALID,5,VALID,0.00304878,
2006-05-01, 00:38:00,VALID,919.102,VALID,0,VALID,98.1259,VALID,-0.288674,VALID,20.3413,VALID,5,VALID,0.224805,
2006-05-01, 00:39:00,VALID,919.104,VALID,0,VALID,98.2938,VALID,-0.237732,VALID,20.6167,VALID,5,VALID,0.0732195,
2006-05-01, 00:40:00,VALID,919.114,VALID,0,VALID,98.1246,VALID,-0.271693,VALID,20.7525,VALID,24,VALID,0.281055,
2006-05-01, 00:41:00,VALID,919.148,VALID,0,VALID,98.8062,VALID,-0.220751,VALID,20.7583,VALID,127,VALID,0.514022,
2006-05-01, 00:42:00,VALID,919.177,VALID,0,VALID,98.763,VALID,-0.220751,VALID,21.1611,VALID,124,VALID,0.224159,
2006-05-01, 00:43:00,VALID,919.203,VALID,0,VALID,98.5494,VALID,-0.271693,VALID,20.4567,VALID,122,VALID,0.36101,
2006-05-01, 00:44:00,VALID,919.231,VALID,0,VALID,98.6918,VALID,-0.220751,VALID,20.1772,VALID,123,VALID,0.0448289,
2006-05-01, 00:45:00,VALID,919.239,VALID,0,VALID,98.618,VALID,-0.254712,VALID,21.1127,VALID,123,VALID,0.15625,
2006-05-01, 00:46:00,VALID,919.261,VALID,0,VALID,98.1017,VALID,-0.271693,VALID,20.0874,VALID,123,VALID,0.0745908,
2006-05-01, 00:47:00,VALID,919.27,VALID,0,VALID,98.6702,VALID,-0.271693,VALID,20.704,VALID,115,VALID,0.362305,
2006-05-01, 00:48:00,VALID,919.299,VALID,0,VALID,98.8456,VALID,-0.305655,VALID,21.2853,VALID,71,VALID,0.325977,
2006-05-01, 00:49:00,VALID,919.333,VALID,0,VALID,98.7375,VALID,-0.254712,VALID,21.0026,VALID,68,VALID,0.0699314,
2006-05-01, 00:50:00,VALID,919.362,VALID,0,VALID,98.5379,VALID,-1,VALID,20.42,VALID,33,VALID,0.292081,
2006-05-01, 00:51:00,VALID,919.41,VALID,0,VALID,98.4031,VALID,-0.867295,VALID,21.0314,VALID,33,VALID,0.164621,
2006-05-01, 00:52:00,VALID,919.442,VALID,0,VALID,98.1704,VALID,-0.20377,VALID,21.2162,VALID,26,VALID,0.605841,
2006-05-01, 00:53:00,VALID,919.483,VALID,0,VALID,98.0916,VALID,-0.20377,VALID,20.708,VALID,15,VALID,0.819767,
2006-05-01, 00:54:00,VALID,919.507,VALID,0,VALID,98.1513,VALID,-0.20377,VALID,21.0354,VALID,15,VALID,0.668605,
2006-05-01, 00:55:00,VALID,919.531,VALID,0,VALID,98.6269,VALID,-0.186789,VALID,21.2477,VALID,3,VALID,0.578488,
2006-05-01, 00:56:00,VALID,919.541,VALID,0,VALID,98.9868,VALID,-0.20377,VALID,20.878,VALID,355,VALID,0.93892,
2006-05-01, 00:57:00,VALID,919.56,VALID,0,VALID,99.2424,VALID,-0.20377,VALID,20.6625,VALID,4,VALID,0.948361,
2006-05-01, 00:58:00,VALID,919.572,VALID,0,VALID,99.0453,VALID,-0.220751,VALID,20.6246,VALID,359,VALID,0.807413,
2006-05-01, 00:59:00,VALID,919.573,VALID,0,VALID,98.9525,VALID,-0.288674,VALID,20.9426,VALID,18,VALID,0.748728,
2006-05-01, 01:00:00,VALID,919.577,VALID,0,VALID,98.763,VALID,-0.20377,VALID,20.033,VALID,9,VALID,0.697049,
2006-05-01, 01:01:00,VALID,919.571,VALID,0,VALID,98.6574,VALID,-0.237732,VALID,20.7863,VALID,5,VALID,0.493517,
2006-05-01, 01:02:00,VALID,919.561,VALID,0,VALID,98.6282,VALID,-0.237732,VALID,21.1731,VALID,5,VALID,0.685417,
2006-05-01, 01:03:00,VALID,919.533,VALID,0,VALID,98.7884,VALID,-0.186789,VALID,21.1759,VALID,5,VALID,0.580729,
2006-05-01, 01:04:00,VALID,919.512,VALID,0,VALID,98.674,VALID,-0.288674,VALID,20.3974,VALID,5,VALID,0.486049,
2006-05-01, 01:05:00,VALID,919.499,VALID,0,VALID,98.487,VALID,-0.288674,VALID,20.4663,VALID,4,VALID,0.611607,
2006-05-01, 01:06:00,VALID,919.476,VALID,0,VALID,98.6803,VALID,-0.288674,VALID,20.4078,VALID,356,VALID,0.505504,
2006-05-01, 01:07:00,VALID,919.466,VALID,0,VALID,98.7439,VALID,-0.305655,VALID,20.9307,VALID,356,VALID,0.375558,
2006-05-01, 01:08:00,VALID,919.468,VALID,0,VALID,98.5824,VALID,-0.288674,VALID,21.2954,VALID,356,VALID,0.371951,
2006-05-01, 01:09:00,VALID,919.477,VALID,0,VALID,98.2989,VALID,-0.20377,VALID,20.5696,VALID,356,VALID,0.351753,
2006-05-01, 01:10:00,VALID,919.479,VALID,0,VALID,98.2823,VALID,-0.186789,VALID,21.215,VALID,356,VALID,0.604802,
2006-05-01, 01:11:00,VALID,919.483,VALID,0,VALID,98.3103,VALID,-0.20377,VALID,20.8747,VALID,356,VALID,0.2859,
2006-05-01, 01:12:00,VALID,919.476,VALID,0,VALID,98.4705,VALID,-0.288674,VALID,20.4818,VALID,356,VALID,0.0825893,
2006-05-01, 01:13:00,VALID,919.462,VALID,0,VALID,98.7922,VALID,-0.186789,VALID,21.2309,VALID,332,VALID,0.520647,
2006-05-01, 01:14:00,VALID,919.426,VALID,0,VALID,99.0046,VALID,-0.20377,VALID,19.8846,VALID,329,VALID,0.484776,
2006-05-01, 01:15:00,VALID,919.377,VALID,0,VALID,99.0287,VALID,-0.186789,VALID,21.3821,VALID,329,VALID,0.143293,
2006-05-01, 01:16:00,VALID,919.339,VALID,0,VALID,99.0961,VALID,-0.169808,VALID,20.6724,VALID,329,VALID,0.016369,
2006-05-01, 01:17:00,VALID,919.324,VALID,0,VALID,99.0898,VALID,-0.220751,VALID,20.2015,VALID,329,VALID,0.010016,
2006-05-01, 01:18:00,VALID,919.302,VALID,0,VALID,99.0733,VALID,-0.271693,VALID,20.2957,VALID,329,VALID,0.00545058,
2006-05-01, 01:19:00,VALID,919.33,VALID,0,VALID,99.03,VALID,-0.288674,VALID,20.6056,VALID,329,VALID,0,
2006-05-01, 01:20:00,VALID,919.354,VALID,0,VALID,98.9881,VALID,-0.537103,VALID,21.6629,VALID,329,VALID,0,
2006-05-01, 01:21:00,VALID,919.39,VALID,0,VALID,98.0102,VALID,-0.254712,VALID,20.6434,VALID,329,VALID,0,
2006-05-01, 01:22:00,VALID,919.408,VALID,0,VALID,96.7449,VALID,-0.288674,VALID,20.8205,VALID,329,VALID,0.209635,
2006-05-01, 01:23:00,VALID,919.404,VALID,0,VALID,97.2065,VALID,-0.220751,VALID,20.0449,VALID,329,VALID,0.383168,
2006-05-01, 01:24:00,VALID,919.406,VALID,0,VALID,97.4634,VALID,-0.288674,VALID,20.402,VALID,329,VALID,0.37309,
2006-05-01, 01:25:00,VALID,919.383,VALID,0,VALID,98.4489,VALID,-0.271693,VALID,19.8825,VALID,340,VALID,0.426525,
2006-05-01, 01:26:00,VALID,919.365,VALID,0,VALID,99.2424,VALID,-0.288674,VALID,20.4313,VALID,6,VALID,0.469703,
2006-05-01, 01:27:00,VALID,919.345,VALID,0,VALID,99.5552,VALID,-0.220751,VALID,20.7033,VALID,31,VALID,0.490359,
2006-05-01, 01:28:00,VALID,919.343,VALID,0,VALID,99.4395,VALID,-0.237732,VALID,20.5385,VALID,65,VALID,0.510356,
2006-05-01, 01:29:00,VALID,919.365,VALID,0,VALID,99.2437,VALID,-0.271693,VALID,20.9233,VALID,75,VALID,0.506811,
2006-05-01, 01:30:00,VALID,919.397,VALID,0,VALID,99.1991,VALID,-0.271693,VALID,19.7809,VALID,123,VALID,0.592147,
2006-05-01, 01:31:00,VALID,919.422,VALID,0,VALID,99.1648,VALID,-0.220751,VALID,20.0736,VALID,145,VALID,0.685976,
2006-05-01, 01:32:00,VALID,919.434,VALID,0,VALID,99.2068,VALID,-0.220751,VALID,20.2992,VALID,152,VALID,0.802507,
2006-05-01, 01:33:00,VALID,919.455,VALID,0,VALID,99.1953,VALID,-0.237732,VALID,20.526,VALID,148,VALID,0.914789,
2006-05-01, 01:34:00,VALID,919.457,VALID,0,VALID,99.1623,VALID,-0.254712,VALID,20.2745,VALID,148,VALID,0.659108,
2006-05-01, 01:35:00,VALID,919.454,VALID,0,VALID,99.0237,VALID,-0.271693,VALID,20.5047,VALID,148,VALID,0.488567,
2006-05-01, 01:36:00,VALID,919.436,VALID,0,VALID,99.1216,VALID,-0.254712,VALID,19.7279,VALID,148,VALID,0.334413,
2006-05-01, 01:37:00,VALID,919.435,VALID,0,VALID,99.2487,VALID,-0.220751,VALID,20.6035,VALID,148,VALID,0.153392,
2006-05-01, 01:38:00,VALID,919.43,VALID,0,VALID,99.3606,VALID,-0.220751,VALID,20.1458,VALID,148,VALID,0,
2006-05-01, 01:39:00,VALID,919.421,VALID,0,VALID,99.4649,VALID,-0.254712,VALID,20.3846,VALID,148,VALID,0,
2006-05-01, 01:40:00,VALID,919.422,VALID,0,VALID,99.4687,VALID,-0.254712,VALID,20.3157,VALID,148,VALID,0,
2006-05-01, 01:41:00,VALID,919.414,VALID,0,VALID,99.3734,VALID,-0.254712,VALID,20.3086,VALID,148,VALID,0.00223214,
2006-05-01, 01:42:00,VALID,919.404,VALID,0,VALID,99.3835,VALID,-0.220751,VALID,20.7496,VALID,148,VALID,0.202762,
2006-05-01, 01:43:00,VALID,919.389,VALID,0,VALID,99.4776,VALID,-0.288674,VALID,20.1996,VALID,148,VALID,0.210193,
2006-05-01, 01:44:00,VALID,919.385,VALID,0,VALID,99.6111,VALID,-0.271693,VALID,20.772,VALID,148,VALID,0.0130208,
2006-05-01, 01:45:00,VALID,919.382,VALID,0,VALID,99.7358,VALID,-0.254712,VALID,20.0303,VALID,148,VALID,0,
2006-05-01, 01:46:00,VALID,919.411,VALID,0,VALID,99.3543,VALID,-0.186789,VALID,20.5928,VALID,148,VALID,0,
2006-05-01, 01:47:00,VALID,919.439,VALID,0,VALID,98.1106,VALID,-0.288674,VALID,20.4824,VALID,148,VALID,0,
2006-05-01, 01:48:00,VALID,919.45,VALID,0,VALID,98.1526,VALID,-0.288674,VALID,20.9956,VALID,148,VALID,0.221294,
2006-05-01, 01:49:00,VALID,919.453,VALID,0,VALID,98.7375,VALID,-0.271693,VALID,20.7067,VALID,148,VALID,0.198765,
2006-05-01, 01:50:00,VALID,919.463,VALID,0,VALID,99.0949,VALID,-0.254712,VALID,20.27,VALID,148,VALID,0.187314,
2006-05-01, 01:51:00,VALID,919.446,VALID,0,VALID,99.4522,VALID,-0.20377,VALID,20.0309,VALID,148,VALID,0.0528706,
2006-05-01, 01:52:00,VALID,919.443,VALID,0,VALID,99.5183,VALID,-0.220751,VALID,20.3652,VALID,148,VALID,0.183594,
2006-05-01, 01:53:00,VALID,919.43,VALID,0,VALID,99.7472,VALID,-0.220751,VALID,20.9077,VALID,148,VALID,0.03125,
2006-05-01, 01:54:00,VALID,919.41,VALID,0,VALID,99.8159,VALID,-0.237732,VALID,20.0046,VALID,148,VALID,0,
2006-05-01, 01:55:00,VALID,919.396,VALID,0,VALID,99.8032,VALID,-0.220751,VALID,19.9872,VALID,148,VALID,0,
2006-05-01, 01:56:00,VALID,919.397,VALID,0,VALID,99.8159,VALID,-0.20377,VALID,20.0107,VALID,148,VALID,0,
2006-05-01, 01:57:00,VALID,919.372,VALID,0,VALID,99.9418,VALID,-0.254712,VALID,20.8499,VALID,148,VALID,0,
2006-05-01, 01:58:00,VALID,919.37,VALID,0,VALID,99.987,VALID,-0.237732,VALID,19.6236,VALID,148,VALID,0,
2006-05-01, 01:59:00,VALID,919.372,VALID,0,VALID,99.9941,VALID,-0.220751,VALID,20.4772,VALID,148,VALID,0,
2006-05-01, 02:00:00,VALID,919.377,VALID,0,VALID,99.826,VALID,-0.20377,VALID,19.8418,VALID,148,VALID,0,
2006-05-01, 02:01:00,VALID,919.401,VALID,0,VALID,99.7523,VALID,-0.20377,VALID,20.5604,VALID,148,VALID,0,
2006-05-01, 02:02:00,VALID,919.426,VALID,0,VALID,99.428,VALID,-0.237732,VALID,19.4332,VALID,148,VALID,0,
2006-05-01, 02:03:00,VALID,919.447,VALID,0,VALID,99.1356,VALID,-0.220751,VALID,20.5615,VALID,148,VALID,0,
2006-05-01, 02:04:00,VALID,919.475,VALID,0,VALID,99.0351,VALID,-0.20377,VALID,20.2159,VALID,148,VALID,0,
2006-05-01, 02:05:00,VALID,919.486,VALID,0,VALID,98.1997,VALID,-0.20377,VALID,20.001,VALID,134,VALID,0.232013,
2006-05-01, 02:06:00,VALID,919.488,VALID,0,VALID,97.8576,VALID,-0.254712,VALID,20.3515,VALID,64,VALID,1.02039,
2006-05-01, 02:07:00,VALID,919.49,VALID,0,VALID,98.7439,VALID,-0.237732,VALID,20.4615,VALID,57,VALID,1.00727,
2006-05-01, 02:08:00,VALID,919.489,VALID,0,VALID,99.264,VALID,-0.237732,VALID,20.0043,VALID,63,VALID,0.890024,
2006-05-01, 02:09:00,VALID,919.497,VALID,0,VALID,99.8993,VALID,-0.271693,VALID,19.5724,VALID,78,VALID,1.04599,
2006-05-01, 02:10:00,VALID,919.504,VALID,0,VALID,100,VALID,-0.220751,VALID,20.2568,VALID,84,VALID,0.964134,
2006-05-01, 02:11:00,VALID,919.523,VALID,0,VALID,100,VALID,-0.254712,VALID,19.1281,VALID,98,VALID,0.82649,
2006-05-01, 02:12:00,VALID,919.534,VALID,0,VALID,100,VALID,-0.271693,VALID,19.9071,VALID,108,VALID,0.807465,
2006-05-01, 02:13:00,VALID,919.533,VALID,0,VALID,100,VALID,-0.220751,VALID,20.3533,VALID,125,VALID,0.770597,
2006-05-01, 02:14:00,VALID,919.525,VALID,0,VALID,100,VALID,-0.20377,VALID,20.7409,VALID,126,VALID,0.921494,
2006-05-01, 02:15:00,VALID,919.506,VALID,0,VALID,100,VALID,-0.220751,VALID,19.1398,VALID,126,VALID,1.01145,
2006-05-01, 02:16:00,VALID,919.488,VALID,0,VALID,100,VALID,-0.220751,VALID,19.5663,VALID,122,VALID,1.0625,
2006-05-01, 02:17:00,VALID,919.454,VALID,0,VALID,100,VALID,-0.237732,VALID,19.8265,VALID,123,VALID,0.780035,
2006-05-01, 02:18:00,VALID,919.439,VALID,0,VALID,100,VALID,-0.220751,VALID,19.5724,VALID,126,VALID,0.630859,
2006-05-01, 02:19:00,VALID,919.409,VALID,0,VALID,100,VALID,-0.20377,VALID,20.0951,VALID,132,VALID,0.791797,
2006-05-01, 02:20:00,VALID,919.399,VALID,0,VALID,100,VALID,-0.20377,VALID,19.9097,VALID,137,VALID,0.588356,
2006-05-01, 02:21:00,VALID,919.399,VALID,0,VALID,100,VALID,-0.20377,VALID,19.598,VALID,142,VALID,0.599085,
2006-05-01, 02:22:00,VALID,919.408,VALID,0,VALID,100,VALID,-0.237732,VALID,19.8158,VALID,142,VALID,0.570508,
2006-05-01, 02:23:00,VALID,919.43,VALID,0,VALID,100,VALID,-0.20377,VALID,20.006,VALID,142,VALID,0.49782,
2006-05-01, 02:24:00,VALID,919.447,VALID,0,VALID,100,VALID,-0.169808,VALID,19.9156,VALID,139,VALID,0.534226,
2006-05-01, 02:25:00,VALID,919.445,VALID,0,VALID,100,VALID,-0.288674,VALID,20.0139,VALID,123,VALID,0.60191,
2006-05-01, 02:26:00,VALID,919.474,VALID,0,VALID,100,VALID,-0.288674,VALID,19.4467,VALID,97,VALID,0.705793,
2006-05-01, 02:27:00,VALID,919.479,VALID,0,VALID,100,VALID,-0.288674,VALID,19.3562,VALID,82,VALID,0.679688,
2006-05-01, 02:28:00,VALID,919.487,VALID,0,VALID,100,VALID,-0.305655,VALID,20.0364,VALID,76,VALID,0.552269,
2006-05-01, 02:29:00,VALID,919.496,VALID,0,VALID,100,VALID,-0.305655,VALID,18.8432,VALID,76,VALID,0.467361,
2006-05-01, 02:30:00,VALID,919.509,VALID,0,VALID,100,VALID,-0.271693,VALID,19.7621,VALID,76,VALID,0.456577,
2006-05-01, 02:31:00,VALID,919.508,VALID,0,VALID,100,VALID,-0.220751,VALID,19.2547,VALID,60,VALID,0.508523,
2006-05-01, 02:32:00,VALID,919.508,VALID,0,VALID,100,VALID,-0.305655,VALID,19.7322,VALID,26,VALID,0.488451,
2006-05-01, 02:33:00,VALID,919.509,VALID,0,VALID,100,VALID,-0.305655,VALID,20.3124,VALID,20,VALID,0.446221,
2006-05-01, 02:34:00,VALID,919.507,VALID,0,VALID,100,VALID,-0.271693,VALID,19.5258,VALID,16,VALID,0.425037,
2006-05-01, 02:35:00,VALID,919.506,VALID,0,VALID,100,VALID,-0.288674,VALID,19.2274,VALID,16,VALID,0.376453,
2006-05-01, 02:36:00,VALID,919.514,VALID,0,VALID,100,VALID,-0.254712,VALID,19.639,VALID,14,VALID,0.369093,
2006-05-01, 02:37:00,VALID,919.512,VALID,0,VALID,100,VALID,-0.186789,VALID,20.0739,VALID,4,VALID,0.442361,
2006-05-01, 02:38:00,VALID,919.51,VALID,0,VALID,100,VALID,-0.20377,VALID,19.7645,VALID,351,VALID,0.251999,
2006-05-01, 02:39:00,VALID,919.493,VALID,0,VALID,100,VALID,-0.20377,VALID,19.7589,VALID,351,VALID,0.274182,
2006-05-01, 02:40:00,VALID,919.491,VALID,0,VALID,100,VALID,-0.169808,VALID,19.8094,VALID,297,VALID,0.549055,
2006-05-01, 02:41:00,VALID,919.477,VALID,0,VALID,100,VALID,-0.186789,VALID,19.9206,VALID,287,VALID,0.450994,
2006-05-01, 02:42:00,VALID,919.48,VALID,0,VALID,100,VALID,-0.305655,VALID,20.9507,VALID,285,VALID,0.380952,
2006-05-01, 02:43:00,VALID,919.469,VALID,0,VALID,100,VALID,-0.254712,VALID,20.0121,VALID,285,VALID,0.359766,
2006-05-01, 02:44:00,VALID,919.471,VALID,0,VALID,100,VALID,-0.186789,VALID,19.3954,VALID,285,VALID,0.237165,
2006-05-01, 02:45:00,VALID,919.477,VALID,0,VALID,100,VALID,-0.20377,VALID,20.2391,VALID,285,VALID,0.00208333,
2006-05-01, 02:46:00,VALID,919.48,VALID,0,VALID,100,VALID,-0.169808,VALID,20.0253,VALID,285,VALID,0.00109012,
2006-05-01, 02:47:00,VALID,919.494,VALID,0,VALID,100,VALID,-0.152827,VALID,19.7843,VALID,285,VALID,0.15904,
2006-05-01, 02:48:00,VALID,919.497,VALID,0,VALID,100,VALID,-0.20377,VALID,18.9669,VALID,285,VALID,0.0421512,
2006-05-01, 02:49:00,VALID,919.523,VALID,0,VALID,100,VALID,-0.220751,VALID,19.3322,VALID,285,VALID,0.0130208,
2006-05-01, 02:50:00,VALID,919.542,VALID,0,VALID,100,VALID,-0.305655,VALID,20.2083,VALID,285,VALID,0.155297,
2006-05-01, 02:51:00,VALID,919.536,VALID,0,VALID,100,VALID,-0.305655,VALID,18.9374,VALID,285,VALID,0.258168,
2006-05-01, 02:52:00,VALID,919.532,VALID,0,VALID,100,VALID,-0.186789,VALID,20.161,VALID,285,VALID,0.349927,
2006-05-01, 02:53:00,VALID,919.525,VALID,0,VALID,100,VALID,-0.288674,VALID,19.3836,VALID,285,VALID,0.258345,
2006-05-01, 02:54:00,VALID,919.493,VALID,0,VALID,100,VALID,-0.271693,VALID,20.6318,VALID,285,VALID,0.0276442,
2006-05-01, 02:55:00,VALID,919.46,VALID,0,VALID,99.9763,VALID,-0.20377,VALID,19.7881,VALID,285,VALID,0,
2006-05-01, 02:56:00,VALID,919.439,VALID,0,VALID,99.7408,VALID,-0.271693,VALID,20.8479,VALID,285,VALID,0.171693,
2006-05-01, 02:57:00,VALID,919.426,VALID,0,VALID,99.9624,VALID,-0.288674,VALID,19.6472,VALID,285,VALID,0.320694,
2006-05-01, 02:58:00,VALID,919.426,VALID,0,VALID,99.9878,VALID,-0.288674,VALID,19.6252,VALID,285,VALID,0.237827,
2006-05-01, 02:59:00,VALID,919.439,VALID,0,VALID,99.9341,VALID,-0.254712,VALID,19.7123,VALID,285,VALID,0.372852,
2006-05-01, 03:00:00,VALID,919.452,VALID,0,VALID,99.9626,VALID,-0.288674,VALID,19.3918,VALID,285,VALID,0.682049,
2006-05-01, 03:01:00,VALID,919.45,VALID,0,VALID,100,VALID,-0.271693,VALID,19.5493,VALID,285,VALID,0.425781,
2006-05-01, 03:02:00,VALID,919.46,VALID,0,VALID,99.999,VALID,-0.254712,VALID,19.9338,VALID,285,VALID,0.379794,
2006-05-01, 03:03:00,VALID,919.445,VALID,0,VALID,99.9893,VALID,-0.305655,VALID,19.6652,VALID,285,VALID,0.260356,
2006-05-01, 03:04:00,VALID,919.432,VALID,0,VALID,99.7251,VALID,-0.271693,VALID,19.019,VALID,285,VALID,0.412388,
2006-05-01, 03:05:00,VALID,919.417,VALID,0,VALID,98.6918,VALID,-0.288674,VALID,19.9463,VALID,285,VALID,0.603924,
2006-05-01, 03:06:00,VALID,919.412,VALID,0,VALID,99.6061,VALID,-0.186789,VALID,20.0777,VALID,299,VALID,0.516335,
2006-05-01, 03:07:00,VALID,919.399,VALID,0,VALID,99.6137,VALID,-0.220751,VALID,19.9109,VALID,316,VALID,0.224888,
2006-05-01, 03:08:00,VALID,919.405,VALID,0,VALID,99.2882,VALID,-0.20377,VALID,20.2003,VALID,316,VALID,0.293713,
2006-05-01, 03:09:00,VALID,919.427,VALID,0,VALID,99.4713,VALID,-0.237732,VALID,19.6848,VALID,316,VALID,0.225472,
2006-05-01, 03:10:00,VALID,919.441,VALID,0,VALID,98.9677,VALID,-0.220751,VALID,19.8591,VALID,316,VALID,0.0703125,
2006-05-01, 03:11:00,VALID,919.455,VALID,0,VALID,99.0529,VALID,-0.220751,VALID,19.4173,VALID,316,VALID,0.29043,
2006-05-01, 03:12:00,VALID,919.459,VALID,0,VALID,99.3327,VALID,-0.254712,VALID,18.7514,VALID,330,VALID,0.521763,
2006-05-01, 03:13:00,VALID,919.459,VALID,0,VALID,99.3517,VALID,-0.20377,VALID,19.3379,VALID,352,VALID,0.547585,
2006-05-01, 03:14:00,VALID,919.445,VALID,0,VALID,98.9168,VALID,-0.20377,VALID,19.4413,VALID,359,VALID,0.695652,
2006-05-01, 03:15:00,VALID,919.432,VALID,0,VALID,98.248,VALID,-0.220751,VALID,19.1186,VALID,14,VALID,0.809837,
2006-05-01, 03:16:00,VALID,919.422,VALID,0,VALID,97.9288,VALID,-0.220751,VALID,19.3967,VALID,23,VALID,0.656808,
2006-05-01, 03:17:00,VALID,919.421,VALID,0,VALID,97.7724,VALID,-0.237732,VALID,19.3277,VALID,24,VALID,0.513421,
2006-05-01, 03:18:00,VALID,919.412,VALID,0,VALID,97.6503,VALID,-0.339617,VALID,19.7586,VALID,24,VALID,0.251488,
2006-05-01, 03:19:00,VALID,919.391,VALID,0,VALID,97.3655,VALID,-0.339617,VALID,18.9049,VALID,24,VALID,0.0397892,
2006-05-01, 03:20:00,VALID,919.378,VALID,0,VALID,97.2269,VALID,-0.339617,VALID,19.6208,VALID,24,VALID,0.216388,
2006-05-01, 03:21:00,VALID,919.365,VALID,0,VALID,97.2828,VALID,-0.305655,VALID,19.1675,VALID,74,VALID,0.452363,
2006-05-01, 03:22:00,VALID,919.348,VALID,0,VALID,97.2917,VALID,-0.339617,VALID,19.5214,VALID,158,VALID,0.644985,
2006-05-01, 03:23:00,VALID,919.332,VALID,0,VALID,97.5219,VALID,-0.305655,VALID,19.7239,VALID,162,VALID,0.781622,
2006-05-01, 03:24:00,VALID,919.326,VALID,0,VALID,97.6948,VALID,-0.220751,VALID,19.6958,VALID,162,VALID,0.614462,
2006-05-01, 03:25:00,VALID,919.321,VALID,0,VALID,97.9085,VALID,-0.305655,VALID,20.1447,VALID,157,VALID,0.465376,
2006-05-01, 03:26:00,VALID,919.327,VALID,0,VALID,98.2264,VALID,-0.288674,VALID,19.1147,VALID,142,VALID,0.587612,
2006-05-01, 03:27:00,VALID,919.329,VALID,0,VALID,98.6778,VALID,-0.288674,VALID,19.133,VALID,154,VALID,0.783612,
2006-05-01, 03:28:00,VALID,919.324,VALID,0,VALID,98.8533,VALID,-0.322636,VALID,18.9964,VALID,155,VALID,0.338844,
2006-05-01, 03:29:00,VALID,919.301,VALID,0,VALID,98.8978,VALID,-0.288674,VALID,19.2346,VALID,155,VALID,0.0594952,
2006-05-01, 03:30:00,VALID,919.271,VALID,0,VALID,99.1101,VALID,-0.322636,VALID,19.531,VALID,155,VALID,0,
2006-05-01, 03:31:00,VALID,919.254,VALID,0,VALID,99.2932,VALID,-0.305655,VALID,20.167,VALID,155,VALID,0,
2006-05-01, 03:32:00,VALID,919.23,VALID,0,VALID,99.4153,VALID,-0.305655,VALID,18.9485,VALID,155,VALID,0,
2006-05-01, 03:33:00,VALID,919.207,VALID,0,VALID,99.4064,VALID,-0.288674,VALID,19.4723,VALID,155,VALID,0,
2006-05-01, 03:34:00,VALID,919.169,VALID,0,VALID,98.8622,VALID,-0.20377,VALID,19.1521,VALID,105,VALID,0.382813,